User: anonymous   Login
Location: Caltech
(34.1382°N, 118.1253°W)
Time: 17:08:38
(UTC-07:00)
Language:

Cosmos 2237 Rocket - Orbit

View from above orbital plane
View from above orbital plane
View from above satellite
View from above satellite

Ground track
Ground track

The orbit data is extracted from the following two-line orbital elements,

1 22566U 93016B   15148.55545729  .00000098  00000-0  75470-4 0  9995
2 22566 071.0067 202.4804 0011243 205.7725 154.2839 14.14898481145092
Epoch (UTC): 28 May 2015 13:19:51
Eccentricity: 0.0011243
inclination: 71.0067°
perigee height: 834 km
apogee height: 851 km
right ascension of ascending node: 202.4804°
argument of perigee: 205.7725°
revolutions per day: 14.14898481
mean anomaly at epoch: 154.2839°
orbit number at epoch: 14509

The dashed part of the orbit path shows where the satellite is in the earth's shadow,  

DLR